User: anonymous   Login
Location: La Pernelle
(49.6188°N, 1.2999°W)
Time: 22:32:17
(UTC+00:00)
Language:

CZ-4B DEB - Orbit

View from above orbital plane
View from above orbital plane
View from above satellite
View from above satellite

Ground track
Ground track

The orbit data is extracted from the following two-line orbital elements,

1 37182U 10051D   21269.46149060  .00042786  00000-0  58953-3 0  9998
2 37182  97.2851 345.8785 0003243  77.8383 282.3236 15.57113020608604
Epoch (UTC): 26 September 2021 11:04:32
Eccentricity: 0.0003243
inclination: 97.2851°
perigee height: 394 km
apogee height: 398 km
right ascension of ascending node: 345.8785°
argument of perigee: 77.8383°
revolutions per day: 15.57113020
mean anomaly at epoch: 282.3236°
orbit number at epoch: 60860

The dashed part of the orbit path shows where the satellite is in the earth's shadow,  

DLR